Location: Township of Marena
(38.1747°N, 99.6798°W)
Time: 03:02:01
(UTC+00:00)

Cosmos 1697 Rocket - Pass Details

Date: 26 October 2020
Orbit: 831 x 845 km, 71.0° (Epoch: 27 November)

Event Time Altitude Azimuth Distance (km) Brightness Sun altitude
Rises 00:55:04 0° 177° (S) 3,358 5.9 -14.0°
Reaches altitude 10° 00:57:39 10° 169° (S) 2,430 5.0 -14.5°
Maximum altitude 01:02:40 36° 104° (ESE) 1,302 3.2 -15.5°
Enters shadow 01:06:15 18° 49° (NE) 1,963 4.2 -16.2°
